Location: Oshawa
(43.9000°N, 78.8670°W)
Time: 11:49:56
(UTC-05:00)

Cosmos 1408 Rocket - Visible Passes

Search period start: 28 November 2014 00:00
Search period end: 08 December 2014 00:00
Orbit: 603 x 632 km, 82.6° (Epoch: 28 November)

Date Brightness Start Highest point End Pass type
(mag) Time Alt. Az. Time Alt. Az. Time Alt. Az.
02 Dec 6.3 06:53:10 10° NNE 06:55:39 15° ENE 06:58:07 10° ESE visible
06 Dec 6.3 06:22:57 10° NNE 06:25:26 15° ENE 06:27:53 10° ESE visible
07 Dec 5.8 06:38:56 10° NNE 06:42:35 25° ENE 06:46:11 10° SE visible
